San Antonio International Airport
KSAT : now visible

Airfield :











YOU CAN JOIN US ON...

 
LOGIN :

Register | Disclaimer

   EN    FR    IT 

 









Legend :    VFR   Marginal VFR   IFR   Intensive IFR   Very Intensive IFR
Visi :
Ceiling :
>= 8 km
>= 3000ft
5 to 8 km
1000 to 3000 ft
1500m to 5 km
500 to 1000 ft
800 to 1500m
200 to 500 ft
< 800m
< 200 ft
Symbols :   Thunderstorms  Fog  Heavy snow  Heavy precipitations  Wind > 20 kt






- Airport Elevation : 809 ft
- IATA code : SAT


KSAT - San Antonio International

CURRENT METAR :
  • 110251Z 08006KT 10SM CLR 21/M01 A2980 RMK AO2 SLP078 T02061006 53016

EXPIRED METARs :
  • 110151Z 08008KT 10SM CLR 22/M01 A2979 RMK AO2 SLP071 T02221011
  • 110051Z 08009KT 10SM CLR 24/M01 A2977 RMK AO2 SLP064 T02441011

TAF KSAT
Valid from the 11 at 00:00 until the 12 at 06:00 UTC


102320Z 1100/1206 04009KT P6SM SKC
FM111600 15008KT P6SM FEW100
KZHU FIR / North America



MET'MAP, your aeronautical weather chart ! - Copyright ORBIFLY December 2007 - Disclaimer

ORBIFLY MET'MAP TEAM :

Programming & Development : Alexandra Zaïnal
Concept & original design : Baudouin d'Aumeries
Assistance for programming : Marc-Olivier Méhu
Technical & hardware support : Manuel Goepfert

Contact : metmap@orbifly.com




SOURCES & CREDITS :

   NOAA       Earth
Advisory